Year,Month,Day,Hour,Minute,Value (Times are PST for temperature in C)
2021,03,30,00,00,1.60
2021,03,30,00,01,1.60
2021,03,30,00,02,1.60
2021,03,30,00,03,1.60
2021,03,30,00,04,1.60
2021,03,30,00,05,1.60
2021,03,30,00,06,1.60
2021,03,30,00,07,1.50
2021,03,30,00,08,1.50
2021,03,30,00,09,1.50
2021,03,30,00,10,1.50
2021,03,30,00,11,1.50
2021,03,30,00,12,1.50
2021,03,30,00,13,1.50
2021,03,30,00,14,1.40
2021,03,30,00,15,1.40
2021,03,30,00,16,1.40
2021,03,30,00,17,1.30
2021,03,30,00,18,1.30
2021,03,30,00,19,1.30
2021,03,30,00,20,1.30
2021,03,30,00,21,1.30
2021,03,30,00,22,1.30
2021,03,30,00,23,1.30
2021,03,30,00,24,1.30
2021,03,30,00,25,1.30
2021,03,30,00,26,1.30
2021,03,30,00,27,1.30
2021,03,30,00,28,1.30
2021,03,30,00,29,1.30
2021,03,30,00,30,1.30
2021,03,30,00,31,1.30
2021,03,30,00,32,1.30
2021,03,30,00,33,1.30
2021,03,30,00,34,1.30
2021,03,30,00,35,1.30
2021,03,30,00,36,1.30
2021,03,30,00,37,1.30
2021,03,30,00,38,1.30
2021,03,30,00,39,1.30
2021,03,30,00,40,1.20
2021,03,30,00,41,1.20
2021,03,30,00,42,1.20
2021,03,30,00,43,1.20
2021,03,30,00,44,1.10
2021,03,30,00,45,1.10
2021,03,30,00,46,1.10
2021,03,30,00,47,1.10
2021,03,30,00,48,1.10
2021,03,30,00,49,1.00
2021,03,30,00,50,1.00
2021,03,30,00,51,1.00
2021,03,30,00,52,1.00
2021,03,30,00,53,1.00
2021,03,30,00,54,1.00
2021,03,30,00,55,1.00
2021,03,30,00,56,1.00
2021,03,30,00,57,1.00
2021,03,30,00,58,1.00
2021,03,30,00,59,1.00
2021,03,30,01,00,1.00
2021,03,30,01,01,1.00
2021,03,30,01,02,1.10
2021,03,30,01,03,1.10
2021,03,30,01,04,1.10
2021,03,30,01,05,1.10
2021,03,30,01,06,1.10
2021,03,30,01,07,1.10
2021,03,30,01,08,1.20
2021,03,30,01,09,1.20
2021,03,30,01,10,1.20
2021,03,30,01,11,1.30
2021,03,30,01,12,1.30
2021,03,30,01,13,1.30
2021,03,30,01,14,1.30
2021,03,30,01,15,1.30
2021,03,30,01,16,1.30
2021,03,30,01,17,1.30
2021,03,30,01,18,1.30
2021,03,30,01,19,1.30
2021,03,30,01,20,1.30
2021,03,30,01,21,1.30
2021,03,30,01,22,1.30
2021,03,30,01,23,1.30
2021,03,30,01,24,1.30
2021,03,30,01,25,1.30
2021,03,30,01,26,1.30
2021,03,30,01,27,1.30
2021,03,30,01,28,1.30
2021,03,30,01,29,1.30
2021,03,30,01,30,1.30
2021,03,30,01,31,1.30
2021,03,30,01,32,1.30
2021,03,30,01,33,1.30
2021,03,30,01,34,1.30
2021,03,30,01,35,1.20
2021,03,30,01,36,1.20
2021,03,30,01,37,1.10
2021,03,30,01,38,1.10
2021,03,30,01,39,1.00
2021,03,30,01,40,1.00
2021,03,30,01,41,1.00
2021,03,30,01,42,1.00
2021,03,30,01,43,0.90
2021,03,30,01,44,0.90
2021,03,30,01,45,0.90
2021,03,30,01,46,0.80
2021,03,30,01,47,0.80
2021,03,30,01,48,0.80
2021,03,30,01,49,0.70
2021,03,30,01,50,0.60
2021,03,30,01,51,0.50
2021,03,30,01,52,0.50
2021,03,30,01,53,0.50
2021,03,30,01,54,0.40
2021,03,30,01,55,0.40
2021,03,30,01,56,0.40
2021,03,30,01,57,0.40
2021,03,30,01,58,0.40
2021,03,30,01,59,0.40
2021,03,30,02,00,0.30
2021,03,30,02,01,0.30
2021,03,30,02,02,0.30
2021,03,30,02,03,0.30
2021,03,30,02,04,0.30
2021,03,30,02,05,0.30
2021,03,30,02,06,0.40
2021,03,30,02,07,0.40
2021,03,30,02,08,0.40
2021,03,30,02,09,0.40
2021,03,30,02,10,0.40
2021,03,30,02,11,0.40
2021,03,30,02,12,0.40
2021,03,30,02,13,0.40
2021,03,30,02,14,0.40
2021,03,30,02,15,0.40
2021,03,30,02,16,0.40
2021,03,30,02,17,0.40
2021,03,30,02,18,0.40
2021,03,30,02,19,0.40
2021,03,30,02,20,0.40
2021,03,30,02,21,0.40
2021,03,30,02,22,0.40
2021,03,30,02,23,0.40
2021,03,30,02,24,0.40
2021,03,30,02,25,0.30
2021,03,30,02,26,0.30
2021,03,30,02,27,0.20
2021,03,30,02,28,0.20
2021,03,30,02,29,0.20
2021,03,30,02,30,0.10
2021,03,30,02,31,0.10
2021,03,30,02,32,0.10
2021,03,30,02,33,0.10
2021,03,30,02,34,0.10
2021,03,30,02,35,0.10
2021,03,30,02,36,0.10
2021,03,30,02,37,0.10
2021,03,30,02,38,0.10
2021,03,30,02,39,0.10
2021,03,30,02,40,0.10
2021,03,30,02,41,0.10
2021,03,30,02,42,0.10
2021,03,30,02,43,0.10
2021,03,30,02,44,0.10
2021,03,30,02,45,0.10
2021,03,30,02,46,0.10
2021,03,30,02,47,0.10
2021,03,30,02,48,0.10
2021,03,30,02,49,0.10
2021,03,30,02,50,0.10
2021,03,30,02,51,0.10
2021,03,30,02,52,0.10
2021,03,30,02,53,0.10
2021,03,30,02,54,0.10
2021,03,30,02,55,0.10
2021,03,30,02,56,0.10
2021,03,30,02,57,0.00
2021,03,30,02,58,-0.10
2021,03,30,02,59,-0.10
2021,03,30,03,00,-0.10
2021,03,30,03,01,-0.10
2021,03,30,03,02,-0.10
2021,03,30,03,03,-0.20
2021,03,30,03,04,-0.20
2021,03,30,03,05,-0.30
2021,03,30,03,06,-0.30
2021,03,30,03,07,-0.30
2021,03,30,03,08,-0.30
2021,03,30,03,09,-0.40
2021,03,30,03,10,-0.40
2021,03,30,03,11,-0.40
2021,03,30,03,12,-0.40
2021,03,30,03,13,-0.40
2021,03,30,03,14,-0.40
2021,03,30,03,15,-0.40
2021,03,30,03,16,-0.40
2021,03,30,03,17,-0.40
2021,03,30,03,18,-0.40
2021,03,30,03,19,-0.40
2021,03,30,03,20,-0.40
2021,03,30,03,21,-0.40
2021,03,30,03,22,-0.40
2021,03,30,03,23,-0.40
2021,03,30,03,24,-0.40
2021,03,30,03,25,-0.40
2021,03,30,03,26,-0.40
2021,03,30,03,27,-0.40
2021,03,30,03,28,-0.40
2021,03,30,03,29,-0.40
2021,03,30,03,30,-0.40
2021,03,30,03,31,-0.40
2021,03,30,03,32,-0.40
2021,03,30,03,33,-0.40
2021,03,30,03,34,-0.40
2021,03,30,03,35,-0.40
2021,03,30,03,36,-0.40
2021,03,30,03,37,-0.40
2021,03,30,03,38,-0.40
2021,03,30,03,39,-0.40
2021,03,30,03,40,-0.40
2021,03,30,03,41,-0.40
2021,03,30,03,42,-0.40
2021,03,30,03,43,-0.40
2021,03,30,03,44,-0.40
2021,03,30,03,45,-0.40
2021,03,30,03,46,-0.40
2021,03,30,03,47,-0.40
2021,03,30,03,48,-0.40
2021,03,30,03,49,-0.40
2021,03,30,03,50,-0.40
2021,03,30,03,51,-0.40
2021,03,30,03,52,-0.40
2021,03,30,03,53,-0.40
2021,03,30,03,54,-0.40
2021,03,30,03,55,-0.50
2021,03,30,03,56,-0.60
2021,03,30,03,57,-0.60
2021,03,30,03,58,-0.60
2021,03,30,03,59,-0.60
2021,03,30,04,00,-0.60
2021,03,30,04,01,-0.60
2021,03,30,04,02,-0.60
2021,03,30,04,03,-0.60
2021,03,30,04,04,-0.60
2021,03,30,04,05,-0.60
2021,03,30,04,06,-0.60
2021,03,30,04,07,-0.60
2021,03,30,04,08,-0.60
2021,03,30,04,09,-0.60
2021,03,30,04,10,-0.60
2021,03,30,04,11,-0.60
2021,03,30,04,12,-0.60
2021,03,30,04,13,-0.70
2021,03,30,04,14,-0.70
2021,03,30,04,15,-0.70
2021,03,30,04,16,-0.70
2021,03,30,04,17,-0.70
2021,03,30,04,18,-0.70
2021,03,30,04,19,-0.70
2021,03,30,04,20,-0.70
2021,03,30,04,21,-0.70
2021,03,30,04,22,-0.70
2021,03,30,04,23,-0.70
2021,03,30,04,24,-0.80
2021,03,30,04,25,-0.90
2021,03,30,04,26,-0.90
2021,03,30,04,27,-0.90
2021,03,30,04,28,-0.90
2021,03,30,04,29,-0.90
2021,03,30,04,30,-0.90
2021,03,30,04,31,-0.90
2021,03,30,04,32,-0.90
2021,03,30,04,33,-0.90
2021,03,30,04,34,-0.90
2021,03,30,04,35,-0.90
2021,03,30,04,36,-0.90
2021,03,30,04,37,-0.90
2021,03,30,04,38,-0.90
2021,03,30,04,39,-0.90
2021,03,30,04,40,-0.90
2021,03,30,04,41,-0.90
2021,03,30,04,42,-1.00
2021,03,30,04,43,-1.10
2021,03,30,04,44,-1.10
2021,03,30,04,45,-1.10
2021,03,30,04,46,-1.10
2021,03,30,04,47,-1.10
2021,03,30,04,48,-1.10
2021,03,30,04,49,-1.10
2021,03,30,04,50,-1.10
2021,03,30,04,51,-1.10
2021,03,30,04,52,-1.10
2021,03,30,04,53,-1.10
2021,03,30,04,54,-1.10
2021,03,30,04,55,-1.10
2021,03,30,04,56,-1.10
2021,03,30,04,57,-1.10
2021,03,30,04,58,-1.10
2021,03,30,04,59,-1.10
2021,03,30,05,00,-1.10
2021,03,30,05,01,-1.10
2021,03,30,05,02,-1.10
2021,03,30,05,03,-1.10
2021,03,30,05,04,-1.20
2021,03,30,05,05,-1.20
2021,03,30,05,06,-1.20
2021,03,30,05,07,-1.10
2021,03,30,05,08,-1.10
2021,03,30,05,09,-1.10
2021,03,30,05,10,-1.10
2021,03,30,05,11,-1.10
2021,03,30,05,12,-1.10
2021,03,30,05,13,-1.10
2021,03,30,05,14,-1.10
2021,03,30,05,15,-1.10
2021,03,30,05,16,-1.10
2021,03,30,05,17,-1.00
2021,03,30,05,18,-0.90
2021,03,30,05,19,-0.90
2021,03,30,05,20,-0.90
2021,03,30,05,21,-0.90
2021,03,30,05,22,-0.90
2021,03,30,05,23,-0.90
2021,03,30,05,24,-0.90
2021,03,30,05,25,-0.90
2021,03,30,05,26,-0.90
2021,03,30,05,27,-0.90
2021,03,30,05,28,-0.90
2021,03,30,05,29,-0.90
2021,03,30,05,30,-0.90
2021,03,30,05,31,-0.90
2021,03,30,05,32,-0.90
2021,03,30,05,33,-0.90
2021,03,30,05,34,-0.90
2021,03,30,05,35,-0.90
2021,03,30,05,36,-0.90
2021,03,30,05,37,-0.90
2021,03,30,05,38,-0.90
2021,03,30,05,39,-0.90
2021,03,30,05,40,-0.90
2021,03,30,05,41,-0.90
2021,03,30,05,42,-0.90
2021,03,30,05,43,-0.90
2021,03,30,05,44,-0.90
2021,03,30,05,45,-0.90
2021,03,30,05,46,-0.90
2021,03,30,05,47,-0.90
2021,03,30,05,48,-0.90
2021,03,30,05,49,-0.90
2021,03,30,05,50,-0.90
2021,03,30,05,51,-1.00
2021,03,30,05,52,-1.10
2021,03,30,05,53,-1.10
2021,03,30,05,54,-1.10
2021,03,30,05,55,-1.10
2021,03,30,05,56,-1.10
2021,03,30,05,57,-1.10
2021,03,30,05,58,-1.10
2021,03,30,05,59,-1.10
2021,03,30,06,00,-1.10
2021,03,30,06,01,-1.10
2021,03,30,06,02,-1.10
2021,03,30,06,03,-1.10
2021,03,30,06,04,-1.10
2021,03,30,06,05,-1.10
2021,03,30,06,06,-1.10
2021,03,30,06,07,-1.10
2021,03,30,06,08,-1.10
2021,03,30,06,09,-1.10
2021,03,30,06,10,-1.10
2021,03,30,06,11,-1.10
2021,03,30,06,12,-1.10
2021,03,30,06,13,-1.10
2021,03,30,06,14,-1.10
2021,03,30,06,15,-1.00
2021,03,30,06,16,-0.90
2021,03,30,06,17,-0.90
2021,03,30,06,18,-0.90
2021,03,30,06,19,-0.90
2021,03,30,06,20,-0.90
2021,03,30,06,21,-0.90
2021,03,30,06,22,-0.90
2021,03,30,06,23,-0.80
2021,03,30,06,24,-0.80
2021,03,30,06,25,-0.80
2021,03,30,06,26,-0.80
2021,03,30,06,27,-0.80
2021,03,30,06,28,-0.80
2021,03,30,06,29,-0.80
2021,03,30,06,30,-0.80
2021,03,30,06,31,-0.80
2021,03,30,06,32,-0.80
2021,03,30,06,33,-0.80
2021,03,30,06,34,-0.80
2021,03,30,06,35,-0.80
2021,03,30,06,36,-0.80
2021,03,30,06,37,-0.80
2021,03,30,06,38,-0.80
2021,03,30,06,39,-0.80
2021,03,30,06,40,-0.80
2021,03,30,06,41,-0.80
2021,03,30,06,42,-0.80
2021,03,30,06,43,-0.80
2021,03,30,06,44,-0.80
2021,03,30,06,45,-0.80
2021,03,30,06,46,-0.80
2021,03,30,06,47,-0.80
2021,03,30,06,48,-0.80
2021,03,30,06,49,-0.80
2021,03,30,06,50,-0.80
2021,03,30,06,51,-0.80
2021,03,30,06,52,-0.80
2021,03,30,06,53,-0.80
2021,03,30,06,54,-0.80
2021,03,30,06,55,-0.80
2021,03,30,06,56,-0.80
2021,03,30,06,57,-0.80
2021,03,30,06,58,-0.80
2021,03,30,06,59,-0.80
2021,03,30,07,00,-0.80
2021,03,30,07,01,-0.80
2021,03,30,07,02,-0.80
2021,03,30,07,03,-0.80
2021,03,30,07,04,-0.80
2021,03,30,07,05,-0.70
2021,03,30,07,06,-0.70
2021,03,30,07,07,-0.70
2021,03,30,07,08,-0.60
2021,03,30,07,09,-0.60
2021,03,30,07,10,-0.60
2021,03,30,07,11,-0.60
2021,03,30,07,12,-0.50
2021,03,30,07,13,-0.40
2021,03,30,07,14,-0.40
2021,03,30,07,15,-0.40
2021,03,30,07,16,-0.30
2021,03,30,07,17,-0.30
2021,03,30,07,18,-0.30
2021,03,30,07,19,-0.30
2021,03,30,07,20,-0.30
2021,03,30,07,21,-0.30
2021,03,30,07,22,-0.30
2021,03,30,07,23,-0.30
2021,03,30,07,24,-0.30
2021,03,30,07,25,-0.20
2021,03,30,07,26,-0.20
2021,03,30,07,27,-0.10
2021,03,30,07,28,-0.10
2021,03,30,07,29,0.00
2021,03,30,07,30,0.10
2021,03,30,07,31,0.20
2021,03,30,07,32,0.30
2021,03,30,07,33,0.40
2021,03,30,07,34,0.40
2021,03,30,07,35,0.40
2021,03,30,07,36,0.50
2021,03,30,07,37,0.50
2021,03,30,07,38,0.60
2021,03,30,07,39,0.60
2021,03,30,07,40,0.60
2021,03,30,07,41,0.70
2021,03,30,07,42,0.70
2021,03,30,07,43,0.70
2021,03,30,07,44,0.80
2021,03,30,07,45,0.80
2021,03,30,07,46,0.80
2021,03,30,07,47,0.80
2021,03,30,07,48,0.80
2021,03,30,07,49,0.80
2021,03,30,07,50,0.80
2021,03,30,07,51,0.90
2021,03,30,07,52,0.90
2021,03,30,07,53,1.00
2021,03,30,07,54,1.00
2021,03,30,07,55,1.00
2021,03,30,07,56,1.10
2021,03,30,07,57,1.10
2021,03,30,07,58,1.10
2021,03,30,07,59,1.10
2021,03,30,08,00,1.10
2021,03,30,08,01,1.10
2021,03,30,08,02,1.10
2021,03,30,08,03,1.10
2021,03,30,08,04,1.10
2021,03,30,08,05,1.20
2021,03,30,08,06,1.20
2021,03,30,08,07,1.20
2021,03,30,08,08,1.20
2021,03,30,08,09,1.20
2021,03,30,08,10,1.20
2021,03,30,08,11,1.30
2021,03,30,08,12,1.30
2021,03,30,08,13,1.30
2021,03,30,08,14,1.30
2021,03,30,08,15,1.30
2021,03,30,08,16,1.40
2021,03,30,08,17,1.50
2021,03,30,08,18,1.50
2021,03,30,08,19,1.60
2021,03,30,08,20,1.60
2021,03,30,08,21,1.60
2021,03,30,08,22,1.70
2021,03,30,08,23,1.80
2021,03,30,08,24,1.80
2021,03,30,08,25,1.90
2021,03,30,08,26,1.90
2021,03,30,08,27,2.00
2021,03,30,08,28,2.00
2021,03,30,08,29,2.10
2021,03,30,08,30,2.20
2021,03,30,08,31,2.20
2021,03,30,08,32,2.30
2021,03,30,08,33,2.40
2021,03,30,08,34,2.50
2021,03,30,08,35,2.60
2021,03,30,08,36,2.70
2021,03,30,08,37,2.80
2021,03,30,08,38,2.90
2021,03,30,08,39,3.00
2021,03,30,08,40,3.10
2021,03,30,08,41,3.20
2021,03,30,08,42,3.30
2021,03,30,08,43,3.50
2021,03,30,08,44,3.60
2021,03,30,08,45,3.80
2021,03,30,08,46,3.90
2021,03,30,08,47,4.00
2021,03,30,08,48,4.20
2021,03,30,08,49,4.30
2021,03,30,08,50,4.40
2021,03,30,08,51,4.50
2021,03,30,08,52,4.60
2021,03,30,08,53,4.80
2021,03,30,08,54,4.90
2021,03,30,08,55,5.00
2021,03,30,08,56,5.10
2021,03,30,08,57,5.20
2021,03,30,08,58,5.30
2021,03,30,08,59,5.40
2021,03,30,09,00,5.50
2021,03,30,09,01,5.60
2021,03,30,09,02,5.70
2021,03,30,09,03,5.80
2021,03,30,09,04,5.90
2021,03,30,09,05,6.00
2021,03,30,09,06,6.00
2021,03,30,09,07,6.00
2021,03,30,09,08,6.10
2021,03,30,09,09,6.10
2021,03,30,09,10,6.20
2021,03,30,09,11,6.20
2021,03,30,09,12,6.30
2021,03,30,09,13,6.40
2021,03,30,09,14,6.40
2021,03,30,09,15,6.40
2021,03,30,09,16,6.40
2021,03,30,09,17,6.40
2021,03,30,09,18,6.50
2021,03,30,09,19,6.60
2021,03,30,09,20,6.60
2021,03,30,09,21,6.70
2021,03,30,09,22,6.70
2021,03,30,09,23,6.70
2021,03,30,09,24,6.70
2021,03,30,09,25,6.70
2021,03,30,09,26,6.70
2021,03,30,09,27,6.70
2021,03,30,09,28,6.80
2021,03,30,09,29,6.80
2021,03,30,09,30,6.80
2021,03,30,09,31,6.70
2021,03,30,09,32,6.70
2021,03,30,09,33,6.80
2021,03,30,09,34,6.80
2021,03,30,09,35,6.80
2021,03,30,09,36,6.80
2021,03,30,09,37,6.80
2021,03,30,09,38,6.80
2021,03,30,09,39,6.90
2021,03,30,09,40,6.90
2021,03,30,09,41,6.90
2021,03,30,09,42,7.00
2021,03,30,09,43,7.00
2021,03,30,09,44,7.00
2021,03,30,09,45,7.10
2021,03,30,09,46,7.00
2021,03,30,09,47,7.00
2021,03,30,09,48,6.80
2021,03,30,09,49,6.80
2021,03,30,09,50,6.80
2021,03,30,09,51,6.90
2021,03,30,09,52,6.90
2021,03,30,09,53,6.90
2021,03,30,09,54,6.90
2021,03,30,09,55,7.00
2021,03,30,09,56,7.10
2021,03,30,09,57,7.20
2021,03,30,09,58,7.30
2021,03,30,09,59,7.30
2021,03,30,10,00,7.20
2021,03,30,10,01,7.30
2021,03,30,10,02,7.30
2021,03,30,10,03,7.30
2021,03,30,10,04,7.30
2021,03,30,10,05,7.30
2021,03,30,10,06,7.40
2021,03,30,10,07,7.40
2021,03,30,10,08,7.40
2021,03,30,10,09,7.50
2021,03,30,10,10,7.50
2021,03,30,10,11,7.50
2021,03,30,10,12,7.50
2021,03,30,10,13,7.40
2021,03,30,10,14,7.40
2021,03,30,10,15,7.50
2021,03,30,10,16,7.50
2021,03,30,10,17,7.50
2021,03,30,10,18,7.60
2021,03,30,10,19,7.60
2021,03,30,10,20,7.70
2021,03,30,10,21,7.80
2021,03,30,10,22,7.90
2021,03,30,10,23,8.00
2021,03,30,10,24,8.00
2021,03,30,10,25,7.90
2021,03,30,10,26,7.90
2021,03,30,10,27,7.80
2021,03,30,10,28,7.80
2021,03,30,10,29,7.80
2021,03,30,10,30,7.80
2021,03,30,10,31,7.80
2021,03,30,10,32,7.90
2021,03,30,10,33,8.00
2021,03,30,10,34,8.10
2021,03,30,10,35,8.20
2021,03,30,10,36,8.30
2021,03,30,10,37,8.30
2021,03,30,10,38,8.20
2021,03,30,10,39,8.20
2021,03,30,10,40,8.30
2021,03,30,10,41,8.40
2021,03,30,10,42,8.50
2021,03,30,10,43,8.50
2021,03,30,10,44,8.50
2021,03,30,10,45,8.50
2021,03,30,10,46,8.50
2021,03,30,10,47,8.60
2021,03,30,10,48,8.60
2021,03,30,10,49,8.70
2021,03,30,10,50,8.70
2021,03,30,10,51,8.70
2021,03,30,10,52,8.60
2021,03,30,10,53,8.40
2021,03,30,10,54,8.30
2021,03,30,10,55,8.20
2021,03,30,10,56,8.20
2021,03,30,10,57,8.20
2021,03,30,10,58,8.30
2021,03,30,10,59,8.40
2021,03,30,11,00,8.40
2021,03,30,11,01,8.50
2021,03,30,11,02,8.50
2021,03,30,11,03,8.50
2021,03,30,11,04,8.50
2021,03,30,11,05,8.60
2021,03,30,11,06,8.50
2021,03,30,11,07,8.50
2021,03,30,11,08,8.50
2021,03,30,11,09,8.50
2021,03,30,11,10,8.50
2021,03,30,11,11,8.60
2021,03,30,11,12,8.70
2021,03,30,11,13,8.80
2021,03,30,11,14,8.80
2021,03,30,11,15,8.80
2021,03,30,11,16,8.80
2021,03,30,11,17,8.70
2021,03,30,11,18,8.70
2021,03,30,11,19,8.70
2021,03,30,11,20,8.70
2021,03,30,11,21,8.70
2021,03,30,11,22,8.70
2021,03,30,11,23,8.70
2021,03,30,11,24,8.70
2021,03,30,11,25,8.70
2021,03,30,11,26,8.70
2021,03,30,11,27,8.70
2021,03,30,11,28,8.70
2021,03,30,11,29,8.70
2021,03,30,11,30,8.80
2021,03,30,11,31,8.90
2021,03,30,11,32,8.90
2021,03,30,11,33,8.70
2021,03,30,11,34,8.70
2021,03,30,11,35,8.80
2021,03,30,11,36,8.80
2021,03,30,11,37,8.80
2021,03,30,11,38,8.80
2021,03,30,11,39,8.90
2021,03,30,11,40,8.90
2021,03,30,11,41,8.80
2021,03,30,11,42,8.80
2021,03,30,11,43,8.90
2021,03,30,11,44,8.90
2021,03,30,11,45,8.90
2021,03,30,11,46,8.80
2021,03,30,11,47,8.80
2021,03,30,11,48,8.80
2021,03,30,11,49,9.00
2021,03,30,11,50,9.20
2021,03,30,11,51,9.30
2021,03,30,11,52,9.20
2021,03,30,11,53,9.20
2021,03,30,11,54,9.20
2021,03,30,11,55,9.10
2021,03,30,11,56,9.10
2021,03,30,11,57,9.10
2021,03,30,11,58,9.10
2021,03,30,11,59,9.20
2021,03,30,12,00,9.20
2021,03,30,12,01,9.20
2021,03,30,12,02,9.20
2021,03,30,12,03,9.10
2021,03,30,12,04,9.00
2021,03,30,12,05,8.90
2021,03,30,12,06,8.90
2021,03,30,12,07,8.90
2021,03,30,12,08,8.90
2021,03,30,12,09,9.00
2021,03,30,12,10,8.90
2021,03,30,12,11,8.90
2021,03,30,12,12,8.90
2021,03,30,12,13,8.90
2021,03,30,12,14,8.80
2021,03,30,12,15,8.80
2021,03,30,12,16,8.90
2021,03,30,12,17,8.90
2021,03,30,12,18,8.90
2021,03,30,12,19,8.80
2021,03,30,12,20,8.70
2021,03,30,12,21,8.70
2021,03,30,12,22,8.70
2021,03,30,12,23,8.80
2021,03,30,12,24,8.80
2021,03,30,12,25,8.80
2021,03,30,12,26,8.90
2021,03,30,12,27,8.90
2021,03,30,12,28,9.00
2021,03,30,12,29,9.00
2021,03,30,12,30,9.00
2021,03,30,12,31,9.00
2021,03,30,12,32,9.10
2021,03,30,12,33,9.20
2021,03,30,12,34,9.30
2021,03,30,12,35,9.40
2021,03,30,12,36,9.40
2021,03,30,12,37,9.50
2021,03,30,12,38,9.60
2021,03,30,12,39,9.60
2021,03,30,12,40,9.60
2021,03,30,12,41,9.60
2021,03,30,12,42,9.60
2021,03,30,12,43,9.60
2021,03,30,12,44,9.70
2021,03,30,12,45,9.70
2021,03,30,12,46,9.70
2021,03,30,12,47,9.60
2021,03,30,12,48,9.50
2021,03,30,12,49,9.30
2021,03,30,12,50,9.20
2021,03,30,12,51,9.20
2021,03,30,12,52,9.20
2021,03,30,12,53,9.20
2021,03,30,12,54,9.30
2021,03,30,12,55,9.30
2021,03,30,12,56,9.20
2021,03,30,12,57,9.20
2021,03,30,12,58,9.20
2021,03,30,12,59,9.20
2021,03,30,13,00,9.00
2021,03,30,13,01,9.00
2021,03,30,13,02,9.00
2021,03,30,13,03,9.00
2021,03,30,13,04,9.00
2021,03,30,13,05,9.00
2021,03,30,13,06,9.10
2021,03,30,13,07,9.10
2021,03,30,13,08,9.20
2021,03,30,13,09,9.40
2021,03,30,13,10,9.60
2021,03,30,13,11,9.70
2021,03,30,13,12,9.80
2021,03,30,13,13,9.80
2021,03,30,13,14,9.80
2021,03,30,13,15,9.80
2021,03,30,13,16,9.80
2021,03,30,13,17,9.80
2021,03,30,13,18,9.60
2021,03,30,13,19,9.60
2021,03,30,13,20,9.50
2021,03,30,13,21,9.50
2021,03,30,13,22,9.40
2021,03,30,13,23,9.40
2021,03,30,13,24,9.30
2021,03,30,13,25,9.30
2021,03,30,13,26,9.20
2021,03,30,13,27,9.30
2021,03,30,13,28,9.30
2021,03,30,13,29,9.30
2021,03,30,13,30,9.50
2021,03,30,13,31,9.70
2021,03,30,13,32,9.60
2021,03,30,13,33,9.50
2021,03,30,13,34,9.60
2021,03,30,13,35,9.70
2021,03,30,13,36,9.90
2021,03,30,13,37,9.90
2021,03,30,13,38,9.90
2021,03,30,13,39,9.90
2021,03,30,13,40,9.90
2021,03,30,13,41,9.90
2021,03,30,13,42,9.80
2021,03,30,13,43,9.90
2021,03,30,13,44,9.90
2021,03,30,13,45,9.90
2021,03,30,13,46,9.90
2021,03,30,13,47,9.90
2021,03,30,13,48,9.90
2021,03,30,13,49,9.90
2021,03,30,13,50,9.90
2021,03,30,13,51,9.90
2021,03,30,13,52,9.90
2021,03,30,13,53,9.80
2021,03,30,13,54,9.70
2021,03,30,13,55,9.60
2021,03,30,13,56,9.70
2021,03,30,13,57,9.80
2021,03,30,13,58,9.90
2021,03,30,13,59,9.90
2021,03,30,14,00,9.80
2021,03,30,14,01,9.70
2021,03,30,14,02,9.70
2021,03,30,14,03,9.70
2021,03,30,14,04,9.70
2021,03,30,14,05,9.70
2021,03,30,14,06,9.80
2021,03,30,14,07,9.70
2021,03,30,14,08,9.70
2021,03,30,14,09,9.60
2021,03,30,14,10,9.60
2021,03,30,14,11,9.70
2021,03,30,14,12,9.70
2021,03,30,14,13,9.70
2021,03,30,14,14,9.70
2021,03,30,14,15,9.70
2021,03,30,14,16,9.70
2021,03,30,14,17,9.70
2021,03,30,14,18,9.60
2021,03,30,14,19,9.60
2021,03,30,14,20,9.50
2021,03,30,14,21,9.60
2021,03,30,14,22,9.70
2021,03,30,14,23,9.80
2021,03,30,14,24,9.90
2021,03,30,14,25,9.90
2021,03,30,14,26,9.90
2021,03,30,14,27,10.00
2021,03,30,14,28,10.10
2021,03,30,14,29,10.10
2021,03,30,14,30,10.00
2021,03,30,14,31,9.90
2021,03,30,14,32,9.90
2021,03,30,14,33,10.00
2021,03,30,14,34,10.10
2021,03,30,14,35,10.00
2021,03,30,14,36,9.90
2021,03,30,14,37,9.90
2021,03,30,14,38,9.90
2021,03,30,14,39,9.90
2021,03,30,14,40,10.00
2021,03,30,14,41,10.10
2021,03,30,14,42,10.10
2021,03,30,14,43,10.00
2021,03,30,14,44,9.90
2021,03,30,14,45,9.90
2021,03,30,14,46,9.90
2021,03,30,14,47,9.90
2021,03,30,14,48,10.00
2021,03,30,14,49,10.10
2021,03,30,14,50,10.20
2021,03,30,14,51,10.20
2021,03,30,14,52,10.20
2021,03,30,14,53,10.20
2021,03,30,14,54,10.20
2021,03,30,14,55,10.20
2021,03,30,14,56,10.20
2021,03,30,14,57,10.30
2021,03,30,14,58,10.20
2021,03,30,14,59,10.20
2021,03,30,15,00,10.20
2021,03,30,15,01,10.10
2021,03,30,15,02,10.00
2021,03,30,15,03,9.90
2021,03,30,15,04,9.90
2021,03,30,15,05,10.10
2021,03,30,15,06,10.20
2021,03,30,15,07,10.40
2021,03,30,15,08,10.40
2021,03,30,15,09,10.40
2021,03,30,15,10,10.50
2021,03,30,15,11,10.60
2021,03,30,15,12,10.60
2021,03,30,15,13,10.60
2021,03,30,15,14,10.60
2021,03,30,15,15,10.50
2021,03,30,15,16,10.30
2021,03,30,15,17,10.20
2021,03,30,15,18,10.10
2021,03,30,15,19,10.10
2021,03,30,15,20,10.10
2021,03,30,15,21,10.10
2021,03,30,15,22,10.00
2021,03,30,15,23,9.90
2021,03,30,15,24,9.90
2021,03,30,15,25,10.00
2021,03,30,15,26,10.20
2021,03,30,15,27,10.20
2021,03,30,15,28,10.20
2021,03,30,15,29,10.10
2021,03,30,15,30,10.10
2021,03,30,15,31,10.20
2021,03,30,15,32,10.20
2021,03,30,15,33,10.30
2021,03,30,15,34,10.40
2021,03,30,15,35,10.50
2021,03,30,15,36,10.60
2021,03,30,15,37,10.70
2021,03,30,15,38,10.70
2021,03,30,15,39,10.70
2021,03,30,15,40,10.70
2021,03,30,15,41,10.80
2021,03,30,15,42,10.80
2021,03,30,15,43,10.80
2021,03,30,15,44,10.70
2021,03,30,15,45,10.60
2021,03,30,15,46,10.60
2021,03,30,15,47,10.50
2021,03,30,15,48,10.40
2021,03,30,15,49,10.30
2021,03,30,15,50,10.20
2021,03,30,15,51,10.20
2021,03,30,15,52,10.20
2021,03,30,15,53,10.30
2021,03,30,15,54,10.40
2021,03,30,15,55,10.40
2021,03,30,15,56,10.40
2021,03,30,15,57,10.40
2021,03,30,15,58,10.40
2021,03,30,15,59,10.40
2021,03,30,16,00,10.40
2021,03,30,16,01,10.40
2021,03,30,16,02,10.40
2021,03,30,16,03,10.40
2021,03,30,16,04,10.40
2021,03,30,16,05,10.40
2021,03,30,16,06,10.40
2021,03,30,16,07,10.40
2021,03,30,16,08,10.30
2021,03,30,16,09,10.20
2021,03,30,16,10,10.30
2021,03,30,16,11,10.20
2021,03,30,16,12,10.30
2021,03,30,16,13,10.40
2021,03,30,16,14,10.40
2021,03,30,16,15,10.30
2021,03,30,16,16,10.30
2021,03,30,16,17,10.20
2021,03,30,16,18,10.20
2021,03,30,16,19,10.30
2021,03,30,16,20,10.40
2021,03,30,16,21,10.40
2021,03,30,16,22,10.50
2021,03,30,16,23,10.60
2021,03,30,16,24,10.60
2021,03,30,16,25,10.70
2021,03,30,16,26,10.70
2021,03,30,16,27,10.60
2021,03,30,16,28,10.60
2021,03,30,16,29,10.60
2021,03,30,16,30,10.70
2021,03,30,16,31,10.80
2021,03,30,16,32,10.90
2021,03,30,16,33,10.90
2021,03,30,16,34,11.00
2021,03,30,16,35,11.10
2021,03,30,16,36,11.00
2021,03,30,16,37,10.90
2021,03,30,16,38,10.90
2021,03,30,16,39,10.90
2021,03,30,16,40,10.90
2021,03,30,16,41,10.90
2021,03,30,16,42,10.80
2021,03,30,16,43,10.70
2021,03,30,16,44,10.60
2021,03,30,16,45,10.60
2021,03,30,16,46,10.60
2021,03,30,16,47,10.60
2021,03,30,16,48,10.60
2021,03,30,16,49,10.60
2021,03,30,16,50,10.60
2021,03,30,16,51,10.60
2021,03,30,16,52,10.60
2021,03,30,16,53,10.60
2021,03,30,16,54,10.60
2021,03,30,16,55,10.40
2021,03,30,16,56,10.30
2021,03,30,16,57,10.20
2021,03,30,16,58,10.30
2021,03,30,16,59,10.30
2021,03,30,17,00,10.40
2021,03,30,17,01,10.40
2021,03,30,17,02,10.40
2021,03,30,17,03,10.40
2021,03,30,17,04,10.30
2021,03,30,17,05,10.30
2021,03,30,17,06,10.30
2021,03,30,17,07,10.30
2021,03,30,17,08,10.30
2021,03,30,17,09,10.20
2021,03,30,17,10,10.20
2021,03,30,17,11,10.20
2021,03,30,17,12,10.20
2021,03,30,17,13,10.20
2021,03,30,17,14,10.20
2021,03,30,17,15,10.20
2021,03,30,17,16,10.10
2021,03,30,17,17,10.10
2021,03,30,17,18,10.10
2021,03,30,17,19,10.10
2021,03,30,17,20,10.00
2021,03,30,17,21,9.90
2021,03,30,17,22,9.90
2021,03,30,17,23,10.00
2021,03,30,17,24,10.10
2021,03,30,17,25,9.90
2021,03,30,17,26,9.90
2021,03,30,17,27,9.90
2021,03,30,17,28,10.00
2021,03,30,17,29,10.10
2021,03,30,17,30,10.10
2021,03,30,17,31,10.10
2021,03,30,17,32,10.10
2021,03,30,17,33,10.10
2021,03,30,17,34,10.10
2021,03,30,17,35,10.10
2021,03,30,17,36,10.10
2021,03,30,17,37,10.10
2021,03,30,17,38,10.00
2021,03,30,17,39,9.90
2021,03,30,17,40,9.90
2021,03,30,17,41,9.90
2021,03,30,17,42,9.90
2021,03,30,17,43,9.90
2021,03,30,17,44,10.00
2021,03,30,17,45,10.10
2021,03,30,17,46,10.10